Date String (YYYY-MM-DD hh:mm:ss) UTC,Instrument flags,Ambient pressure (hPa),Sample flow (lpm),Bypass flow (lpm),Sample temperature (°C),Ambient temperature (°C),ASC tube jacket temperature (°C),LED temperature (°C),Box temperature (°C),Sample RH (%),Span deviation,Mass concentration (μg/m³),Mass concentration (μg/m³),Mass concentration (μg/m³)
DateTimeUTC,F1_M11,P_M11,Q1_M11,Q2_M11,T1_M11,T2_M11,T3_M11,T4_M11,T5_M11,U1_M11,ZSPAN_M11,X0_M11,X2_M11,X1_M11
2021-08-26 04:00:00,,0831.0,4.99,0.00,29.6,28.6,00.0,38.5,31.4,30.5,0002.0,0024.56,0011.09,0009.06
2021-08-26 04:01:00,,0831.0,5.01,0.00,29.5,27.3,00.0,38.5,31.1,30.5,0001.8,0024.87,0011.08,0009.03
2021-08-26 04:02:00,,0831.1,5.01,0.00,29.4,26.2,00.0,38.5,30.8,30.7,0001.4,0026.49,0011.08,0009.02
2021-08-26 04:03:00,,0831.0,5.00,0.00,29.3,26.3,00.0,38.5,30.8,30.7,0001.3,0027.03,0011.04,0009.04
2021-08-26 04:04:00,,0830.9,5.00,0.00,29.3,26.7,00.0,38.4,30.9,30.7,0001.4,0026.54,0010.93,0009.02
2021-08-26 04:05:00,,0831.0,4.99,0.00,29.3,27.1,00.0,38.4,31.0,30.5,0001.6,0026.53,0010.89,0009.01
2021-08-26 04:06:00,,0831.0,5.01,0.00,29.3,27.4,00.0,38.4,31.0,29.9,0002.0,0026.20,0010.79,0008.98
2021-08-26 04:07:00,,0830.9,4.98,0.00,29.3,27.7,00.0,38.4,31.1,29.9,0002.2,0026.12,0010.67,0008.93
2021-08-26 04:08:00,,0830.9,5.01,0.00,29.3,27.9,00.0,38.4,31.1,29.6,0002.2,0026.08,0010.61,0008.90
2021-08-26 04:09:00,,0831.0,5.00,0.00,29.4,28.0,00.0,38.4,31.2,29.4,0002.4,0026.68,0010.54,0008.85
2021-08-26 04:10:00,,0830.9,5.00,0.00,29.4,28.2,00.0,38.4,31.2,29.2,0002.7,0026.92,0010.46,0008.78
2021-08-26 04:11:00,,0831.0,5.00,0.00,29.4,28.3,00.0,38.4,31.3,29.3,0002.7,0027.69,0010.38,0008.73
2021-08-26 04:12:00,,0830.9,5.00,0.00,29.4,28.4,00.0,38.5,31.3,29.1,0002.7,0027.27,0010.29,0008.67
2021-08-26 04:13:00,,0830.9,5.00,0.00,29.5,28.5,00.0,38.5,31.3,29.1,0002.9,0026.38,0010.22,0008.61
2021-08-26 04:14:00,,0830.9,5.00,0.00,29.5,28.5,00.0,38.5,31.4,29.1,0002.9,0025.19,0010.14,0008.54
2021-08-26 04:15:00,,0830.9,5.00,0.00,29.5,28.6,00.0,38.5,31.4,29.0,0002.7,0025.28,0010.06,0008.47
2021-08-26 04:16:00,,0830.9,4.99,0.00,29.6,28.6,00.0,38.5,31.4,28.7,0002.7,0024.35,0010.03,0008.42
2021-08-26 04:17:00,,0830.9,5.01,0.00,29.5,27.4,00.0,38.5,31.1,28.8,0002.7,0023.48,0009.97,0008.40
2021-08-26 04:18:00,,0830.9,4.99,0.00,29.4,26.2,00.0,38.5,30.7,29.1,0002.6,0023.80,0009.96,0008.39
2021-08-26 04:19:00,,0830.9,5.01,0.00,29.3,26.2,00.0,38.5,30.7,29.3,0002.4,0024.73,0009.92,0008.35
2021-08-26 04:20:00,,0830.9,4.99,0.00,29.2,26.6,00.0,38.4,30.8,29.4,0002.2,0024.81,0009.85,0008.33
2021-08-26 04:21:00,,0830.9,5.01,0.00,29.2,27.0,00.0,38.4,30.9,29.3,0001.9,0025.37,0009.84,0008.32
2021-08-26 04:22:00,,0830.9,4.98,0.00,29.3,27.4,00.0,38.4,31.0,29.4,0001.5,0024.48,0009.90,0008.30
2021-08-26 04:23:00,,0830.9,5.00,0.00,29.3,27.6,00.0,38.4,31.1,29.5,0001.6,0024.21,0009.92,0008.30
2021-08-26 04:24:00,,0831.0,5.00,0.00,29.3,27.8,00.0,38.4,31.1,29.7,0001.6,0023.62,0009.89,0008.31
2021-08-26 04:25:00,,0831.0,4.99,0.00,29.3,28.0,00.0,38.4,31.2,29.6,0001.7,0023.45,0009.83,0008.30
2021-08-26 04:26:00,,0831.0,5.02,0.00,29.3,28.1,00.0,38.4,31.2,29.4,0001.6,0023.63,0009.85,0008.30
2021-08-26 04:27:00,,0831.0,5.00,0.00,29.4,28.3,00.0,38.4,31.2,29.1,0001.7,0023.35,0009.79,0008.29
2021-08-26 04:28:00,,0831.0,4.99,0.00,29.4,28.4,00.0,38.4,31.3,29.2,0001.6,0023.58,0009.81,0008.28
2021-08-26 04:29:00,,0831.0,5.00,0.00,29.4,28.5,00.0,38.4,31.3,29.0,0001.6,0023.18,0009.80,0008.26
2021-08-26 04:30:00,,0831.0,5.01,0.00,29.5,28.5,00.0,38.5,31.3,29.1,0001.4,0023.17,0009.79,0008.24
2021-08-26 04:31:00,,0831.0,5.00,0.00,29.5,28.6,00.0,38.5,31.4,29.2,0001.3,0023.07,0009.80,0008.21
2021-08-26 04:32:00,,0831.1,4.99,0.00,29.5,28.7,00.0,38.5,31.4,29.1,0001.6,0022.44,0009.80,0008.22
2021-08-26 04:33:00,,0831.0,5.01,0.00,29.6,28.7,00.0,38.5,31.4,29.2,0001.8,0021.94,0009.72,0008.23
2021-08-26 04:34:00,,0831.0,5.00,0.00,29.6,28.8,00.0,38.6,31.4,29.1,0001.5,0021.62,0009.69,0008.23
2021-08-26 04:35:00,,0831.0,5.00,0.00,29.6,28.5,00.0,38.6,31.4,28.5,0001.5,0021.87,0009.69,0008.24
2021-08-26 04:36:00,,0831.0,5.01,0.00,29.5,26.8,00.0,38.5,30.9,28.8,0001.3,0022.07,0009.69,0008.23
2021-08-26 04:37:00,,0831.0,4.99,0.00,29.4,26.2,00.0,38.5,30.7,28.8,0001.2,0022.19,0009.68,0008.22
2021-08-26 04:38:00,,0831.1,5.00,0.00,29.3,26.4,00.0,38.5,30.8,28.9,0001.0,0022.94,0009.70,0008.21
2021-08-26 04:39:00,,0831.1,5.00,0.00,29.2,26.8,00.0,38.5,30.8,29.1,0001.0,0023.25,0009.68,0008.20
2021-08-26 04:40:00,,0831.1,4.98,0.00,29.3,27.2,00.0,38.4,30.9,29.0,0000.8,0023.68,0009.66,0008.19
2021-08-26 04:41:00,,0831.1,5.01,0.00,29.3,27.5,00.0,38.4,31.0,29.0,0000.5,0021.85,0009.69,0008.20
2021-08-26 04:42:00,,0831.1,5.01,0.00,29.3,27.7,00.0,38.4,31.1,29.0,0000.8,0020.81,0009.70,0008.21
2021-08-26 04:43:00,,0831.1,4.99,0.00,29.3,27.9,00.0,38.4,31.1,28.9,0000.9,0020.84,0009.70,0008.20
2021-08-26 04:44:00,,0831.0,5.00,0.00,29.4,28.1,00.0,38.4,31.2,28.8,0000.9,0020.62,0009.72,0008.20
2021-08-26 04:45:00,,0831.0,5.00,0.00,29.4,28.2,00.0,38.4,31.2,28.8,0001.0,0020.42,0009.68,0008.17
2021-08-26 04:46:00,,0831.0,5.01,0.00,29.4,28.3,00.0,38.5,31.3,28.7,0001.0,0019.91,0009.64,0008.16
2021-08-26 04:47:00,,0831.0,5.00,0.00,29.4,28.4,00.0,38.5,31.3,28.5,0001.3,0019.83,0009.66,0008.15
2021-08-26 04:48:00,,0831.0,5.00,0.00,29.5,28.5,00.0,38.5,31.4,28.5,0001.7,0019.23,0009.67,0008.13
2021-08-26 04:49:00,,0831.0,5.01,0.00,29.5,28.6,00.0,38.5,31.4,28.5,0001.9,0019.16,0009.70,0008.13
2021-08-26 04:50:00,,0831.0,5.01,0.00,29.5,28.6,00.0,38.5,31.4,28.4,0002.2,0018.85,0009.69,0008.13
2021-08-26 04:51:00,,0831.0,5.00,0.00,29.6,28.7,00.0,38.6,31.4,28.3,0002.6,0018.43,0009.67,0008.13
2021-08-26 04:52:00,,0831.0,5.00,0.00,29.6,28.7,00.0,38.6,31.5,28.3,0002.7,0018.38,0009.64,0008.10
2021-08-26 04:53:00,,0830.9,5.01,0.00,29.6,28.6,00.0,38.6,31.4,28.3,0002.5,0018.14,0009.60,0008.10
2021-08-26 04:54:00,,0830.9,4.99,0.00,29.6,27.1,00.0,38.6,31.0,28.4,0002.4,0018.21,0009.58,0008.09
2021-08-26 04:55:00,,0830.9,4.99,0.00,29.4,26.2,00.0,38.6,30.7,28.6,0002.5,0019.12,0009.59,0008.06
2021-08-26 04:56:00,,0830.9,4.99,0.00,29.3,26.3,00.0,38.5,30.8,28.7,0002.5,0019.94,0009.60,0008.05
2021-08-26 04:57:00,,0830.9,5.00,0.00,29.3,26.7,00.0,38.5,30.8,28.9,0002.3,0020.22,0009.62,0008.05
2021-08-26 04:58:00,,0830.9,5.01,0.00,29.3,27.1,00.0,38.5,30.9,28.9,0002.4,0020.24,0009.64,0008.04
2021-08-26 04:59:00,,0830.9,4.99,0.00,29.3,27.4,00.0,38.5,31.0,28.8,0001.9,0020.72,0009.63,0008.03
